sat.trackr.live / text

‹ back to catalog

ICEYE-X35

NORAD 58302 · 2023-174AY

PAYLOAD ACTIVE UNKNOWN

§ Identity

Operator
Country
FIN
Launch date
2023-11-11
Launch site
AFWTR
Launch vehicle
Mass (kg)
RCS (m²)

External: N2YO · Heavens-Above · Gunter

§ Orbital elements

Epoch: 2026-09-21T22:48:33.856704Z

Period
92.15 min
Inclination
97.3727°
Eccentricity
0.0007287
Mean motion
15.62585006 rev/d
Perigee alt
375.3 km
Apogee alt
385.1 km
Semi-major
6,758.3 km
B*
6.5846e-4
RAAN
352.8505°
Arg perigee
200.0452°
Mean anomaly
160.0521°
Rev number
16,040

§ Raw data

ICEYE-X351 58302U 23174AY  26264.95039186  .00059011  00000+0  65846-3 0  99932 58302  97.3727 352.8505 0007287 200.0452 160.0521 15.62585006160404

JSON: /api/v1/satellites/58302 · /tle

For live sub-satellite position, see the globe view (requires WebGL).

§ Visibility from observer

Set your observer location to see the next 7 days of passes ≥ 10°. The values pass through the URL so the page stays shareable.

No JS? Fill the form by hand. The geolocation button needs JavaScript.

§ Radio — SatNOGS DB

ModeDescriptionDownlinkUplink
BPSK S-band telemetry 2.264 GHz

1 transmitter · refreshed weekly from db.satnogs.org